Simultaneous Nadir Overpasses (SNOs) Predictions

Prediction of SNOs between GOES-14 and NPP Satellite Orbit:

Table of predicted SNOs for the next 14.0 days since TLE Epoch: 11/11/2023
Index Date Time (GOES-14) GOES-14 Lat,Lon NPP Lat,Lon Distance(km) Time Diff (sec)
1 11/11/2023 08:43:35 0.05,-108.63 0.33,-109.78 131.60 80
2 11/12/2023 08:27:31 0.07,-108.63 -0.70,-105.25 385.23 80
3 11/13/2023 20:46:47 -0.04,-108.58 -0.49,-110.56 225.43 80
4 11/14/2023 20:30:43 -0.06,-108.58 0.54,-106.03 291.06 80
5 11/16/2023 08:49:50 0.03,-108.62 0.65,-111.30 305.66 80
6 11/17/2023 08:33:46 0.04,-108.62 -0.38,-106.77 210.50 80
7 11/18/2023 20:53:02 -0.01,-108.56 -0.79,-112.08 400.97 80
8 11/19/2023 20:36:56 -0.02,-108.56 0.18,-107.54 115.17 80
9 11/21/2023 08:56:05 -0.00,-108.60 0.94,-112.82 481.55 80
10 11/22/2023 08:39:59 0.01,-108.60 -0.04,-108.29 34.88 80
11 11/24/2023 20:40:30 -0.00,-108.54 -0.13,-109.06 59.48 80
